#timestamp,LO_Frequency,Hit,StdDev 
1562551215.8,286046996.7,N
1562551235.6,286046997.8,N
1562551255.5,286046997.1,N
1562551275.3,286046996.7,N
1562551295.2,286046997.2,N
1562551315.9,286046997.0,N
1562551335.7,286046997.7,N
1562551355.6,286046998.0,N
1562551375.4,286046997.5,N
1562551395.2,286046997.1,N
1562551415.1,286046995.6,N
1562551416.0,286046995.6,N
1562551435.8,286046995.5,N
1562551455.7,286046995.2,N
1562551475.5,286046997.6,N
1562551495.3,286046995.5,N
1562551515.2,286046995.3,N
1562551535.0,286046995.7,N
1562551535.9,286046995.7,N
1562551555.8,286046997.9,N
1562551575.6,286046995.2,Y
1562551595.4,286047000.8,P
1562551615.3,286046998.5,N
1562551635.1,286046998.1,N
1562551655.9,286046998.5,N
1562551675.7,286046998.5,N
1562551695.5,286046996.8,N
1562551715.4,286046997.0,N
1562551735.2,286046999.1,N
1562551755.0,286046999.2,N
1562551755.9,286046999.2,N
1562551775.8,286046996.7,N
1562551795.6,286046997.0,N
1562551815.5,286046996.7,N
1562551835.3,286046997.8,N
1562551855.1,286046997.3,N
1562551875.9,286046997.1,N
1562551895.7,286046994.9,Y
1562551915.5,286047000.6,P
1562551935.4,286047001.0,N
1562551955.2,286046998.6,N
1562551975.1,286046999.1,N
1562551976.0,286046999.1,N
1562551995.8,286046998.6,N
1562552015.7,286046999.6,N
1562552035.5,286046996.8,Y
1562552055.3,286046997.2,P
1562552075.2,286046999.5,N
1562552095.0,286046998.8,N
1562552095.9,286046998.8,N
1562552115.8,286046998.8,N
1562552135.6,286046998.4,N
1562552155.4,286046998.3,N
1562552175.3,286046998.1,N
1562552195.1,286047000.7,N
1562552215.9,286046998.2,N
1562552235.7,286046999.0,N
1562552255.5,286047000.3,N
1562552275.4,286047000.4,N
1562552295.2,286047002.4,N
1562552315.0,286047002.8,N
1562552315.9,286047002.8,N
1562552335.8,286046999.8,N
1562552355.6,286047002.3,N
1562552375.5,286047000.2,N
1562552395.3,286047000.2,N
1562552415.1,286047001.9,N
1562552435.9,286046999.7,N
1562552455.7,286047002.7,N
1562552475.6,286047002.0,N
1562552495.4,286047002.5,N
1562552515.2,286047003.9,N
1562552535.1,286047004.2,N
1562552536.0,286047004.2,N
1562552555.8,286047001.5,N
1562552575.7,286047001.5,N
1562552595.5,286047002.2,N
1562552615.3,286047002.0,N
1562552635.2,286047004.4,N
1562552655.0,286046999.7,N
1562552655.9,286046999.7,N
1562552675.8,286047001.4,N
1562552695.6,286047003.8,N
1562552715.4,286047004.4,N
1562552735.3,286047001.7,N
1562552755.1,286047003.0,N
1562552775.9,286047005.3,Y
1562552795.7,286046999.8,P
1562552815.5,286047000.1,N
1562552835.4,286047001.8,N
1562552855.2,286047002.3,N
1562552875.0,286047002.5,N
1562552876.0,286047002.5,N
1562552895.8,286047004.3,Y
1562552915.6,286047001.0,P
1562552935.5,286047001.0,P
1562552955.3,286047001.1,P
1562552975.1,286047000.4,N
1562552995.9,286046998.1,Y
1562553015.7,286046999.3,P
1562553035.6,286046998.3,N
1562553055.4,286046998.8,N
1562553075.2,286046998.2,N
1562553095.1,286047002.6,N
1562553096.0,286047002.6,N
1562553115.8,286047001.8,N
1562553135.7,286047001.9,N
1562553155.5,286047001.6,N
1562553175.3,286047001.4,N
1562553195.2,286047004.2,N
1562553215.0,286047002.2,N
1562553215.9,286047002.2,N
1562553235.8,286047001.9,N
1562553255.6,286047002.3,N
1562553275.4,286047002.7,N
1562553295.3,286047001.8,N
1562553315.1,286047001.9,N
1562553335.9,286047000.1,N
1562553355.7,286047001.5,N
1562553375.5,286047002.0,N
1562553395.4,286047002.7,N
1562553415.2,286047000.0,N
1562553435.0,286046999.8,N
1562553435.9,286046999.8,N
1562553455.8,286047003.8,N
1562553475.6,286047003.1,N
1562553495.5,286047004.2,N
1562553515.3,286047005.6,Y
1562553535.1,286047001.9,P
1562553555.9,286046999.9,N
1562553575.7,286047000.2,N
1562553595.6,286047002.0,N
1562553615.4,286047000.2,N
1562553635.2,286047001.6,N
1562553655.1,286047001.9,N
1562553656.0,286047001.9,N
1562553675.8,286047001.8,N
1562553695.7,286047002.1,N
1562553715.5,286047001.9,N
1562553735.3,286047000.2,N
1562553755.2,286047001.1,N
1562553775.0,286046998.2,N
1562553775.9,286046998.2,N
1562553795.7,286046998.3,N
1562553815.6,286047001.1,N
1562553835.4,286046999.9,N
1562553855.3,286047002.0,N
1562553875.1,286047001.3,N
1562553876.0,286047001.3,N
1562553895.8,286047001.9,N
1562553915.7,286047002.2,N
1562553935.5,286047001.2,N
1562553955.4,286047001.0,N
1562553975.2,286047002.2,N
1562553995.0,286047002.5,N
1562553995.9,286047002.5,N
1562554015.8,286047000.2,N
1562554035.6,286047002.1,N
1562554055.4,286047001.8,N
1562554075.3,286047002.5,N
1562554095.1,286047001.8,N
1562554115.9,286047000.7,N
1562554135.7,286047000.2,N
1562554155.5,286047002.2,N
1562554175.4,286047000.0,N
1562554195.2,286046999.8,N
1562554215.1,286047000.1,N
1562554216.0,286047000.1,N
1562554235.8,286047002.6,N
1562554255.6,286047001.6,N
1562554275.5,286047002.7,N
1562554295.3,286047001.7,N
1562554315.1,286047004.3,Y
1562554335.9,286047001.8,P
1562554355.9,286046999.8,N
1562554375.7,286047002.8,P
1562554395.6,286046999.8,N
1562554415.4,286046999.7,N
1562554435.2,286047002.3,N
1562554455.1,286046999.8,N
1562554456.0,286046999.8,N
1562554475.8,286047000.5,N
1562554495.7,286046998.2,N
1562554515.5,286047000.4,N
1562554535.3,286047000.9,N
1562554555.2,286046998.9,N
1562554575.0,286046999.0,N
1562554575.9,286046999.0,N
1562554595.8,286046997.0,N
1562554615.6,286046998.9,N
1562554635.4,286046996.5,N
1562554655.3,286046996.5,N
1562554675.1,286046998.4,N
1562554695.8,286046999.2,N
1562554715.7,286046996.6,N
1562554735.5,286046999.6,N
1562554755.4,286046999.2,N
1562554775.2,286046998.4,N
1562554795.0,286046998.8,N
1562554795.9,286046998.8,N
